シューメーカー-ホルト第2彗星

121P/Shoemaker-Holt 2 (1996)

English version
Home page
Updated on September 23, 2004

---------------------------------------------------------------------

・ プロフィール

符号 121P/1995 Q3
検出日 1995年8月29日
検出光度 21.1等
検出者 J. V. Scotti (Kitt Peak)

・ 軌道要素

   The following improved orbital elements, by Kenji Muraoka, are 
  from 172 observations 1989 Mar. 4 to 1997 July 3, perturbations 
  by 9 Planets, Moon and 5 minor planets were taken into account. 
   The mean residual is +/- 0.68 arc seconds.

      Epoch  =  1996 Aug. 25.0  TT       JDT = 2450320.5
          T  =  1996 Aug. 20.04879       +/- 0.00127 (m.e.) TT
       Peri. =    6.12769                +/- 0.00027
       Node  =   99.71990                +/- 0.00009   (2000.0)
       Incl. =   17.69675                +/- 0.00002
          q  =    2.6643001              +/- 0.0000010 AU
          e  =    0.3367287              +/- 0.0000002
          a  =    4.0169084              +/- 0.0000005 AU
          n  =    0.12242389             +/- 0.00000002
          P  =    8.051                  +/- 0.0000016  years

・ 星図

・ 1995年 6月 2日〜1997年 7月 1日

・ 光度変化

        m1 = -2 + 5 logΔ + 35 log r(t - 145)

---------------------------------------------------------------------

軌道要素は村岡健治氏の計算によるものです。
星図は StellaNavigator Ver.2.0 for Windows (アストロアーツ 編著 / アスキー出版局刊) で作成したものです。
光度グラフはComet for Windowsで作成したものです。

---------------------------------------------------------------------

Copyright(C) Seiichi Yoshida (comet@aerith.net). All rights reserved.